Tims Ford Observed Data For Previous 48 Hours

Caption
Day and Hour Reservoir Elevation (behind dam)* Tailwater Elevation (below dam)* Average Hourly Discharge*
6/23/2018 1 AM CDT 888.63 744.24 240
6/23/2018 2 AM CDT 888.65 744.24 240
6/23/2018 3 AM CDT 888.68 744.22 240
6/23/2018 4 AM CDT 888.70 744.22 240
6/23/2018 5 AM CDT 888.72 744.21 240
6/23/2018 6 AM CDT 888.74 744.20 240
6/23/2018 7 AM CDT 888.75 744.19 240
6/23/2018 8 AM CDT 888.77 744.19 240
6/23/2018 9 AM CDT 888.78 744.18 240
6/23/2018 10 AM CDT 888.80 744.18 240
6/23/2018 11 AM CDT 888.82 744.19 240
6/23/2018 12 PM CDT 888.81 744.17 240
6/23/2018 1 PM CDT 888.86 744.20 240
6/23/2018 2 PM CDT 888.88 744.19 240
6/23/2018 3 PM CDT 888.88 744.19 240
6/23/2018 4 PM CDT 888.91 744.18 240
6/23/2018 5 PM CDT 888.96 744.18 240
6/23/2018 6 PM CDT 888.96 744.18 240
6/23/2018 7 PM CDT 888.99 744.17 240
6/23/2018 8 PM CDT 889.00 744.16 240
6/23/2018 9 PM CDT 889.02 744.17 240
6/23/2018 10 PM CDT 889.05 744.19 240
6/23/2018 11 PM CDT 889.06 744.17 240
6/24/2018 12 AM CDT 889.08 744.17 240
6/24/2018 1 AM CDT 889.10 744.18 240
6/24/2018 2 AM CDT 889.11 744.16 240
6/24/2018 3 AM CDT 889.12 744.17 240
6/24/2018 4 AM CDT 889.13 744.17 240
6/24/2018 5 AM CDT 889.14 744.15 240
6/24/2018 6 AM CDT 889.16 744.17 240
6/24/2018 7 AM CDT 889.17 744.16 240
6/24/2018 8 AM CDT 889.17 744.16 240
6/24/2018 9 AM CDT 889.18 744.16 240
6/24/2018 10 AM CDT 889.19 744.17 240
6/24/2018 11 AM CDT 889.21 744.17 240
6/24/2018 12 PM CDT 889.22 744.16 240
6/24/2018 1 PM CDT 889.23 744.15 240
6/24/2018 2 PM CDT 889.23 744.15 240
6/24/2018 3 PM CDT 889.24 744.16 240
6/24/2018 4 PM CDT 889.28 744.15 240
6/24/2018 5 PM CDT 889.26 744.13 240
6/24/2018 6 PM CDT 889.29 744.15 240
6/24/2018 7 PM CDT 889.30 744.16 240

Elevations are in feet above sea level. Discharges are in cubic feet per second and are reported at the end of the hour.